This is the latest recevied weather packets stored in our database for station/object AC1IX. If no packets are shown the sender has not sent any weather packets the latest 10 day(s).
| Time | Temp. | Humidity | Pressure | Rain* | Wind** | Luminosity | Snow |
|---|---|---|---|---|---|---|---|
| 1777881513 | 5° C | 86% | 1011.1 hPa | 0 mm | - | 0 W/m² | - |
| 1777881210 | 5° C | 85% | 1011.1 hPa | 0 mm | - | 0 W/m² | - |
| 1777880908 | 5° C | 85% | 1011.1 hPa | 0 mm | - | 0 W/m² | - |
| 1777880605 | 5° C | 84% | 1010.7 hPa | 0 mm | - | 0 W/m² | - |
| 1777880304 | 5.56° C | 84% | 1011 hPa | 0 mm | - | 0 W/m² | - |
| 1777880001 | 5° C | 83% | 1010.9 hPa | 0 mm | - | 0 W/m² | - |
| 1777879700 | 5.56° C | 84% | 1011 hPa | 0 mm | - | 0 W/m² | - |
| 1777879396 | 5.56° C | 84% | 1011.2 hPa | 0 mm | - | 0 W/m² | - |
| 1777879094 | 5.56° C | 83% | 1010.9 hPa | 0 mm | - | 0 W/m² | - |
| 1777878790 | 5.56° C | 83% | 1011.1 hPa | 0 mm | - | 0 W/m² | - |
| 1777878488 | 5.56° C | 81% | 1011.1 hPa | 0 mm | - | 0 W/m² | - |
| 1777878184 | 5.56° C | 80% | 1011.1 hPa | 0 mm | - | 0 W/m² | - |
| 1777877880 | 5.56° C | 81% | 1011 hPa | 0 mm | - | 0 W/m² | - |
| 1777877577 | 5.56° C | 80% | 1010.7 hPa | 0 mm | - | 0 W/m² | - |
| 1777877273 | 5.56° C | 79% | 1010.9 hPa | 0 mm | - | 0 W/m² | - |
| 1777876971 | 5.56° C | 80% | 1010.7 hPa | 0 mm | - | 0 W/m² | - |
| 1777876669 | 5.56° C | 79% | 1011.1 hPa | 0 mm | - | 0 W/m² | - |
| 1777876366 | 5.56° C | 79% | 1010.9 hPa | 0 mm | - | 0 W/m² | - |
| 1777876062 | 5.56° C | 79% | 1011 hPa | 0 mm | - | 0 W/m² | - |
| 1777875758 | 5.56° C | 77% | 1010.9 hPa | 0 mm | - | 0 W/m² | - |
| 1777875455 | 5.56° C | 76% | 1011.2 hPa | 0 mm | - | 0 W/m² | - |
| 1777875151 | 5.56° C | 73% | 1011 hPa | 0 mm | - | 0 W/m² | - |
| 1777874849 | 5.56° C | 75% | 1011.3 hPa | 0 mm | - | 0 W/m² | - |
| 1777874544 | 5.56° C | 75% | 1011.2 hPa | 0 mm | - | 0 W/m² | - |
| 1777874242 | 6.11° C | 77% | 1011.4 hPa | 0 mm | - | 0 W/m² | - |
* Rain latest hour (hover to see other rain measurements)
** Current wind speed in m/s (hover to see current wind gust speed)